Погода в Кингисеппе

Погода в Кингисеппе : погода сейчас, прогноз погоды и архив. Всё, что Вы хотите узнать о погоде в Кингисеппе!

Поиск расширенной информации на нашем сайте:

Другие новости

Новости СМИ2

Главная страница сайта

Новости сайта

03.07.2017

Напоминаем, что на нашем специализированном сайте Метеоцентр.Азия вы можете получить высокодетализированные автоматические прогнозы погоды по пунктам России, СНГ и мира в авиационном формате (включающие направление и скорость ветра, видимость, явления погоды, количество и форму облачности, нижнюю и верхнюю границу облачности).


Погода в Кингисеппе - сегодня

Время (UTC), дата Ветер
(°,м/с) 
Видим.   Явления Облачность Т
(°С)
Тd
(°С)
f(%) Тe
(°С)
Pmin
(гПа)
dP
(гПа)
Po
(мм)
O2
(г/м3)
Тmin Tmax R s Состояние
почвы
15 17.10.17 170 (Ю) 4000 м  гроза, ливневой дождь  10/10 570 м кучево-дожд. 
[Cb cap]
+7.3 +7.3 100 +7  1009.6  -2.6  755  295         
18 17.10.17 190 (Ю) 10 км  слаб. ливневой дождь{гроза}  10/10 180 м кучево-дожд. 
[Cb cap]
+8.6 +8.6 100 +8  1004.2  -5.3  751  292    +9     
21 17.10.17 250 (З) 10 км  слаб. дождь{ливн. осадки}  10/10 210 м 
[Frnb|Ns]
+11.1 +11.1 100 +14  1001.6  -2.5  749  288           
00 18.10.17 230 (ЮЗ) 10 км  слаб. дождь{ливн. осадки}  10/10 300 м 
[Frnb|Ns]
+11.1 +11 99 +13  1000.4  -1.3  749  288           
03 18.10.17 240 (ЮЗ) 10 км  {дождь}  9/9 500 м 
[St]
+10.3 +10.2 99 +10  999.1  -1.2  748  288  +7.2       
06 18.10.17 240 (ЮЗ) 10 км  слаб. дождь  10/10 240 м 
[Frnb|Ns]
+10.1 +10.1 100 +10  997.7  -1.4  746  288  +8.6       
09 18.10.17 290 (З) 3-10{10}  10 км  слаб. ливневой дождь  10/10 330 м кучево-дожд. 
[Cb cap]
+9.9 +9.7 99 +10  998.7  747  289           
12 18.10.17 320 (СЗ) 4{12}  10 км  в посл. час ливневой дождь  10/10 630 м кучево-дожд. 
[Cb cap]
+7.3 +5.3 87 +6  1003.1  4.4  751  294           
15 18.10.17 270 (З) 10 км  {ливн. осадки}  4/4 600 м 
[Sc]
+6.2 +4.7 90 +7  1006  2.9  753  296         
18 18.10.17 270 (З) 2{13}  10 км  слаб. ливневой дождь  6/4 600 м кучево-дожд., верхняя 
[Cb cap|Ci fib]
+5.7 +5.1 96 +5  1007.7  1.7  754  297    +10.3     
21 18.10.17 240 (ЮЗ) 10 км  {ливн. осадки}  4/4 600 м кучево-дожд. 
[Cb cap]
+5.5 +5.5 100 +5  1008.3  0.6  754  297           
00 19.10.17 270 (З) 10 км  слаб. ливневой дождь  8/8 540 м кучево-дожд. 
[Cb cap]
+5.3 +5.3 100 +6  1010  1.7  756  298           
03 19.10.17 310 (СЗ) 10 км  {ливн. осадки}  9/9 1260 м кучево-дожд. 
[Cb cap]
+5.7 +4.7 93 +7  1011.6  1.6  757  298  +5.1       
06 19.10.17 тихо ()   10 км  {ливн. осадки}  1/1 1000 м 
[Sc]
+4.5 +4.2 98 +5  1013.5  1.8  758  300  +3.4       
09 19.10.17 300 (СЗ) 20000 м  {ливн. осадки}  4/3 600 м кучево-дожд., средняя 
[Cb cap|Ac trans]
+8.2 +4.1 75 +8  1015.3  1.9  760  297           
12 19.10.17 300 (СЗ) 20000 м  {ливн. осадки}  9/9 630 м кучево-дожд. 
[Cb cap]
+7.8 +4.1 77 +8  1016.9  1.6  761  297           
15 19.10.17 320 (СЗ) 10 км  в посл. час ливневой дождь  8/8 600 м кучево-дожд. 
[Cb cap]
+5.2 +3.4 88 +6  1017.8  0.8  761  301      0.5     
18 19.10.17 050 (СВ) 10 км  в посл. час ливневой дождь  9/9 630 м кучево-дожд. 
[Cb cap]
+3.3 +3.3 100 +4  1018.8  762  303    +9.1  0.9     
21 19.10.17 310 (СЗ) 10 км    10/10 800 м 
[Sc]
+3.5 +3.5 100 +4  1019.9  1.1  763  303           
00 20.10.17 340 (С) 10 км    10/10 870 м 
[Sc]
+3.2 +3.2 100 +4  1020.8  0.9  764  304           
03 20.10.17 тихо ()   10 км  {ливн. осадки}  9/8 800 м средняя 
[Sc|Ac trans]
+1.6 +1.6 100 +2  1021.4  0.6  764  306  +1.5    0.9     
06 20.10.17 200 (Ю) 10 км  в посл. час ливневой дождь  9/9 600 м кучево-дожд. 
[Cb cap]
+2.9 +2.9 100 +4  1022.1  0.7  765  304  +1.5       
09 20.10.17 280 (З) 10 км  слаб. ливневой дождь  9/8 180 м кучево-дожд., средняя 
[Cb cap|Ac trans]
+5.8 +5.4 97 +7  1022.9  0.7  765  301           
12 20.10.17 320 (СЗ) 10 км  {ливн. осадки}  10/10 660 м кучево-дожд. 
[Cb cap]
+5.4 +3.7 89 +4  1023  0.2  765  302           
15 20.10.17 тихо ()   10 км    5/5 600 м кучево-дожд. 
[Cb cap]
+4.5 +2.9 89 +5  1023.3  0.3  766  303         
Время (UTC), дата Ветер
(°,м/с) 
Видим.   Явления Облачность Т
(°С)
Тd
(°С)
f(%) Тe
(°С)
Pmin
(гПа)
dP
(гПа)
Po
(мм)
O2
(г/м3)
Тmin Tmax R s Состояние
почвы

Для получения пояснительной информации подведите курсор к названию столбца.

ПОГОДА в Кингисеппе - архив

Всё, что Вы хотите узнать о погоде в Кингисеппе - удобно и подробно!

Выберите нужную дату (начиная с 1 января 2015* года) и нажмите кнопку "Найти".
Будут отображены архивные сводки погоды по пункту Кингисепп, начиная с указанной даты.


Отображать данные в формате CSV (для использования в таблицах Excel)


Внимание! Наш архив погоды предназначен исключительно для личного некоммерческого использования в познавательных целях. Если Вам необходимы официальные справки о состоянии погоды (для производственных, юридических, коммерческих и т.п. целей), обращайтесь в органы Росгидромета.

*Примечание: данная дата относится к архиву по метеостанциям СССР (Россия, СНГ, Балтия).
Архив по метеостанциям Зарубежной Европы и Азии (кроме Китая) хранится 10 дней, по другим регионам земного шара (Китай, Африка, Америка, Австралия, Океания) - 1 день.

Кингисепп - район местоположения метеостанции


Название, широта, долгота, высота метеостанции:
Кингисепп 59.4°ш. 28.6°д. 19 м над ур. моря [Российская Федерация]

Дополнительная информация

В oтличие oт бoльшинства пoгoдных сайтoв мы публикуем пoдрoбную метеoинфoрмацию в детальнoм прoфессиoнальнoм фoрмате.

Характеристики температуры и влажнoсти вoздуха измеряются на высoте 2 м в тени вдали oт зданий и деревьев.
Скoрoсть ветра измеряется на высoте 10 м (на урoвне рoста челoвека скoрoсть ветра ниже в 1.5-2 раза). Если метеoстанция нахoдится в гoрoде или в лесу, тo скoрoсть ветра занижена на 2-4 м/с пo сравнению с oткрытым местoм. Скoрoсть ветра над акватoриями крупных рек и oзёр, а также на вершинах хoлмoв на 2-5 м/с выше, чем в oбычных услoвиях.
Атмoсфернoе давление в разных тoчках местнoсти мoжет значительнo oтличаться oт давления на метеoстанции, в зависимoсти oт услoвий рельефа (при пoдъёме на 10 м давление пoнижается примернo на 1 мм рт.ст.).